Flag for Western Sahara Weather past 2 weeks in El Aaiún, Western Sahara

Now
61 °F

Passing clouds.


Feels Like: 61 °F
Forecast: 58 / 78 °F
Wind: 12 mph from Northeast

Location: Laayoune/Hassan Isl

Current Time: Mar 29, 2015 at 4:27:18 AM

Latest Report: Mar 29, 2015 at 4:00 AM


Visibility: 5 mi

Pressure: 30.24 "Hg

Humidity: 83%

Dew point: 55 °F

Location of El AaiúnLocation

Historic Weather in El Aaiún — Graph

°F

El Aaiún temperature yesterday

Maximum temperature yesterday: 79 °F (at 2:00 PM)
Minimum temperature yesterday: 54 °F (at 6:00 AM)
Average temperature yesterday: 64 °F

Past Weeks' High & Low Weather Summary

 TemperatureHumidityPressure
High79 °F (Mar 28, 2:00 PM)94% (Mar 22, 4:00 AM)30.30 "Hg (Mar 22, 4:00 AM)
Low50 °F (Mar 21, 5:00 AM)36% (Mar 17, 3:00 PM)29.80 "Hg (Mar 22, 3:00 PM)
Average62 °F67%30.05 "Hg
* Reported Mar 14 2:00 AM — Mar 29 3:00 AM, El Aaiún, Weather by CustomWeather, © 2015

Note: Actual official high and low records may vary slightly from our data, if they occured in-between our weather recording intervals... More about our weather records

Advertising

El Aaiún weather history for previous 24 hours

 ConditionsComfort  
Time TempWeatherWind HumidityBarometerVisibility
3:00 AM
Sun, Mar 29
61 °FPassing clouds.12 mph77%30.24 "Hg5 mi
1:00 AM61 °FPassing clouds.20 mph83%30.27 "Hg5 mi
12:00 AM61 °FPassing clouds.16 mph83%30.27 "Hg5 mi
11:00 PM
Sat, Mar 28
61 °FPassing clouds.23 mph83%30.27 "Hg5 mi
10:00 PM61 °FPassing clouds.13 mph83%30.27 "HgN/A
9:00 PM61 °FPassing clouds.17 mph83%30.27 "HgN/A
8:00 PM64 °FSunny.21 mph73%30.24 "Hg10 mi
7:00 PM68 °FSunny.18 mph69%30.21 "Hg10 mi
6:00 PM72 °FSunny.21 mph61%30.18 "Hg10 mi
5:00 PM77 °FSunny.18 mph47%30.18 "Hg10 mi
3:00 PM77 °FSunny.17 mph51%30.18 "Hg10 mi
2:00 PM79 °FSunny.10 mph39%30.21 "Hg10 mi
1:00 PM75 °FSunny.9 mph44%30.24 "Hg10 mi
12:00 PM72 °FSunny.8 mph53%30.27 "Hg10 mi
11:00 AM66 °FSunny.9 mph68%30.30 "Hg10 mi
10:00 AM64 °FSunny.9 mph73%30.27 "Hg10 mi
9:00 AM61 °FSunny.8 mph83%30.27 "Hg10 mi
8:00 AM57 °FSunny.6 mph88%30.24 "Hg10 mi
7:00 AM54 °FPassing clouds.2 mph88%30.24 "Hg5 mi
6:00 AM54 °FPassing clouds.3 mph88%30.21 "Hg5 mi
5:00 AM55 °FPassing clouds.3 mph88%30.21 "Hg5 mi
4:00 AM57 °FPassing clouds.6 mph88%30.21 "Hg5 mi
Weather by CustomWeather, © 2015

See weather overviewHow to use our weather pages